Flag for Germany Weather past 2 weeks in Haltern am See, North Rhine-Westphalia, Germany

Now
49 °F

Passing clouds.


Feels Like: 47 °F
Forecast: 44 / 68 °F
Wind: 5 mph from Southwest

Location: Muenster / Osnabrueck

Current Time: May 30, 2015 at 3:01:24 AM

Latest Report: May 30, 2015 at 2:00 AM


Visibility: 16 mi

Pressure: 29.75 "Hg

Humidity: 89%

Dew point: 46 °F

Location of Haltern am SeeLocation

Historic Weather in Haltern am See — Graph

°F

Haltern am See temperature yesterday

Maximum temperature yesterday: 63 °F (at 4:00 PM)
Minimum temperature yesterday: 41 °F (at 4:00 AM)
Average temperature yesterday: 54 °F

Past Weeks' High & Low Weather Summary

 TemperatureHumidityPressure
High69 °F (May 22, 5:00 PM)98% (May 21, 1:00 AM)30.34 "Hg (May 21, 1:00 AM)
Low38 °F (May 17, 6:00 AM)38% (May 22, 5:00 PM)29.61 "Hg (May 18, 8:00 PM)
Average54 °F68%30.05 "Hg
* Reported May 15 2:00 AM — May 30 2:00 AM, Haltern am See, Weather by CustomWeather, © 2015

Note: Actual official high and low records may vary slightly from our data, if they occured in-between our weather recording intervals... More about our weather records

Advertising

Haltern am See weather history for previous 24 hours

 ConditionsComfort  
Time TempWeatherWind HumidityBarometerVisibility
2:00 AM
Sat, May 30
49 °FPassing clouds.5 mph89%29.75 "Hg16 mi
1:00 AM49 °FOvercast.6 mph86%29.75 "Hg12 mi
12:00 AM49 °FLight rain. Overcast.6 mph88%29.74 "Hg12 mi
11:00 PM
Fri, May 29
50 °FLight rain. Overcast.6 mph80%29.74 "Hg12 mi
10:00 PM52 °FLight rain. Overcast.12 mph75%29.74 "Hg9 mi
9:00 PM59 °FLight rain. Overcast.7 mph53%29.71 "Hg12 mi
8:00 PM60 °FOvercast.8 mph47%29.71 "Hg19 mi
7:00 PM61 °FOvercast.7 mph44%29.71 "Hg19 mi
6:00 PM61 °FOvercast.8 mph44%29.72 "Hg16 mi
5:00 PM62 °FOvercast.8 mph45%29.73 "Hg16 mi
4:00 PM63 °FPartly sunny.8 mph43%29.75 "Hg19 mi
3:00 PM61 °FOvercast.8 mph46%29.77 "Hg12 mi
2:00 PM60 °FOvercast.7 mph50%29.79 "Hg12 mi
1:00 PM59 °FOvercast.6 mph58%29.80 "Hg9 mi
12:00 PM58 °FOvercast.6 mph62%29.83 "Hg9 mi
11:00 AM58 °FOvercast.5 mph63%29.84 "Hg7 mi
10:00 AM57 °FOvercast.3 mph77%29.85 "Hg6 mi
9:00 AM53 °FOvercast.3 mph85%29.87 "Hg6 mi
8:00 AM49 °FOvercast.2 mph89%29.89 "Hg6 mi
7:00 AM46 °FOvercast.2 mph89%29.89 "Hg7 mi
6:00 AM44 °FOvercast.1 mph94%29.90 "Hg16 mi
5:00 AM42 °FFog.1 mph97%29.92 "Hg19 mi
4:00 AM41 °FFog.1 mph97%29.93 "Hg22 mi
3:00 AM42 °FFog.No wind96%29.95 "Hg22 mi
Weather by CustomWeather, © 2015

See weather overviewHow to use our weather pages